FW3353 Weather Reports


time (UTC)temp
C
wind
direction
speed
KPH
gust
KPH
rain 1hr
cm
rain 24hr
cm
rain mn
cm
humidity
%
barometer
mb
20260503022003 10 86 6.4 12.9 0.00 0.00 0.00 95 1010.7
20260503021524 10 83 8.0 14.5 0.00 0.00 0.00 95 1010.7
20260503021024 10 83 8.0 14.5 0.00 0.00 0.00 95 1010.7
20260503020503 11 89 8.0 16.1 0.00 0.00 0.00 95 1010.7
20260503020003 11 88 4.8 16.1 0.00 0.00 0.00 95 1010.7
20260503015524 11 3 1.6 8.0 0.00 0.00 0.00 95 1010.6
20260503015003 11 323 1.6 4.8 0.00 0.00 0.00 95 1010.7
20260503014503 11 324 1.6 4.8 0.00 0.00 0.00 95 1010.7
20260503014003 11 353 3.2 9.7 0.00 0.00 0.00 95 1010.7
20260503013503 10 19 4.8 11.3 0.00 0.00 0.00 95 1010.7
20260503013024 10 61 6.4 12.9 0.00 0.00 0.00 95 1010.7
20260503012503 10 62 6.4 12.9 0.00 0.00 0.00 95 1010.8
20260503012003 11 57 6.4 14.5 0.00 0.00 0.00 95 1010.8
20260503011503 11 50 6.4 14.5 0.00 0.00 0.00 95 1010.9
20260503011004 11 28 4.8 11.3 0.00 0.00 0.00 95 1010.8
20260503010504 10 47 6.4 12.9 0.00 0.00 0.00 95 1010.8
20260503010003 10 61 6.4 12.9 0.00 0.00 0.00 95 1010.9
20260503005524 10 65 6.4 12.9 0.00 0.00 0.00 95 1010.9
20260503005003 10 60 4.8 12.9 0.00 0.00 0.00 95 1010.9
20260503004503 10 61 6.4 14.5 0.00 0.00 0.00 95 1010.9
20260503004004 10 67 6.4 14.5 0.00 0.00 0.00 95 1010.9
20260503003503 10 69 6.4 14.5 0.00 0.00 0.00 95 1010.9
20260503003003 10 68 6.4 11.3 0.00 0.00 0.00 95 1010.8
20260503002503 10 61 8.0 16.1 0.00 0.00 0.00 95 1010.9
20260503002003 10 57 6.4 16.1 0.00 0.00 0.00 95 1010.9
20260503001503 10 57 6.4 11.3 0.00 0.00 0.00 95 1010.9
20260503001003 10 58 6.4 11.3 0.00 0.00 0.00 95 1011.0
20260503000524 10 57 6.4 12.9 0.00 0.00 0.00 95 1011.0
20260503000003 10 61 6.4 12.9 0.00 0.00 0.00 95 1011.0
20260502235503 10 66 6.4 12.9 0.00 0.00 0.00 95 1011.0
20260502235024 10 63 4.8 14.5 0.00 0.00 0.00 95 1011.1
20260502234503 11 61 4.8 14.5 0.00 0.00 0.00 95 1011.0
20260502234003 11 59 4.8 12.9 0.00 0.00 0.00 95 1011.0
20260502233503 11 55 4.8 12.9 0.00 0.00 0.00 95 1011.0
20260502233024 11 46 4.8 11.3 0.00 0.00 0.00 95 1011.1
20260502232503 11 45 6.4 12.9 0.00 0.00 0.00 95 1011.1
20260502232003 11 48 6.4 12.9 0.00 0.00 0.00 95 1011.1
20260502231503 11 48 6.4 12.9 0.00 0.00 0.00 95 1011.0
20260502231003 11 56 6.4 14.5 0.00 0.00 0.00 95 1011.1
20260502230503 11 49 4.8 14.5 0.00 0.00 0.00 95 1011.1
20260502230004 11 46 4.8 12.9 0.00 0.00 0.00 95 1011.1
20260502225503 11 49 4.8 11.3 0.00 0.00 0.00 95 1011.2
20260502225003 11 28 4.8 9.7 0.00 0.00 0.00 95 1011.2
20260502224503 11 54 4.8 12.9 0.00 0.00 0.00 95 1011.2
20260502224003 11 72 4.8 12.9 0.00 0.00 0.00 95 1011.2
20260502223503 11 68 4.8 11.3 0.00 0.00 0.00 95 1011.2
20260502223003 11 70 6.4 11.3 0.00 0.00 0.00 95 1011.2
20260502222503 11 71 6.4 11.3 0.00 0.00 0.00 95 1011.2
20260502222003 11 72 6.4 11.3 0.00 0.00 0.00 95 1011.3
20260502221503 11 72 6.4 11.3 0.00 0.00 0.00 95 1011.3
20260502221003 11 70 6.4 14.5 0.00 0.00 0.00 95 1011.3
20260502220503 11 70 6.4 14.5 0.00 0.00 0.00 95 1011.3
20260502220003 11 71 6.4 11.3 0.00 0.00 0.00 95 1011.3
20260502215524 11 68 4.8 11.3 0.00 0.00 0.00 95 1011.3
20260502215003 11 72 4.8 11.3 0.00 0.00 0.00 95 1011.3
20260502214503 11 67 6.4 14.5 0.00 0.00 0.00 94 1011.4
20260502214003 11 65 8.0 14.5 0.00 0.00 0.00 94 1011.4
20260502213503 11 75 8.0 14.5 0.00 0.00 0.00 94 1011.4
20260502213003 11 77 6.4 14.5 0.00 0.00 0.00 94 1011.4
20260502212524 11 72 6.4 12.9 0.00 0.00 0.00 94 1011.4
20260502212004 11 75 8.0 17.7 0.00 0.00 0.00 94 1011.4
20260502211524 11 77 8.0 17.7 0.00 0.00 0.00 94 1011.5
20260502211003 11 76 8.0 16.1 0.00 0.00 0.00 94 1011.5
20260502210503 11 78 8.0 16.1 0.00 0.00 0.00 94 1011.5
20260502210004 11 76 6.4 14.5 0.00 0.00 0.00 94 1011.5
20260502205503 11 77 6.4 14.5 0.00 0.00 0.00 94 1011.5
20260502205024 11 83 8.0 12.9 0.00 0.00 0.00 94 1011.5
20260502204503 11 83 6.4 12.9 0.00 0.00 0.00 94 1011.5
20260502204003 11 82 6.4 12.9 0.00 0.00 0.00 93 1011.5
20260502203524 11 79 6.4 12.9 0.00 0.00 0.00 93 1011.5
20260502203003 11 81 6.4 12.9 0.00 0.00 0.00 93 1011.5
20260502202524 11 84 8.0 16.1 0.00 0.00 0.00 93 1011.5
20260502202003 11 83 6.4 16.1 0.00 0.00 0.00 93 1011.5
20260502201503 11 84 6.4 14.5 0.00 0.00 0.00 93 1011.5
20260502201024 11 84 6.4 11.3 0.00 0.00 0.00 93 1011.5
20260502200503 11 84 8.0 12.9 0.00 0.00 0.00 92 1011.5
20260502200003 11 86 8.0 12.9 0.00 0.00 0.00 92 1011.4
20260502195503 11 86 6.4 12.9 0.00 0.00 0.00 92 1011.4
20260502195003 11 86 8.0 12.9 0.00 0.00 0.00 92 1011.4
20260502194524 11 87 8.0 11.3 0.00 0.00 0.00 92 1011.4
20260502194003 11 89 8.0 11.3 0.00 0.00 0.00 92 1011.4
20260502193524 11 88 8.0 11.3 0.00 0.00 0.00 92 1011.4
20260502193003 11 88 8.0 12.9 0.00 0.00 0.00 92 1011.3
20260502192503 11 86 8.0 12.9 0.00 0.00 0.00 92 1011.3
20260502192003 11 82 8.0 14.5 0.00 0.00 0.00 92 1011.3
20260502191503 11 83 8.0 14.5 0.00 0.00 0.00 92 1011.3
20260502191003 11 83 8.0 14.5 0.00 0.00 0.00 91 1011.2
20260502190503 11 82 8.0 14.5 0.00 0.00 0.00 91 1011.2
20260502190004 12 85 9.7 16.1 0.00 0.00 0.00 91 1011.2
20260502185503 12 84 9.7 16.1 0.00 0.00 0.00 91 1011.2
20260502185003 12 83 8.0 14.5 0.00 0.00 0.00 91 1011.2
20260502184503 12 88 8.0 16.1 0.00 0.00 0.00 90 1011.2
20260502184003 12 87 8.0 16.1 0.00 0.00 0.00 90 1011.1
20260502183503 12 85 8.0 16.1 0.00 0.00 0.00 90 1011.1
20260502183025 12 85 8.0 14.5 0.00 0.00 0.00 90 1011.1
20260502182503 12 86 9.7 16.1 0.00 0.00 0.00 90 1011.0
20260502182003 12 84 11.3 17.7 0.00 0.00 0.00 90 1011.1
20260502181524 12 83 9.7 17.7 0.00 0.00 0.00 90 1011.0
20260502181003 12 82 9.7 17.7 0.00 0.00 0.00 90 1011.0
20260502180503 12 82 9.7 19.3 0.00 0.00 0.00 90 1011.0
20260502170503 12 86 11.3 20.9 0.00 0.00 0.00 89 1011.1
20260502164003 13 85 11.3 19.3 0.00 0.00 0.00 88 1011.2
20260502163503 13 78 9.7 19.3 0.00 0.00 0.00 87 1011.2
20260502163003 13 79 9.7 17.7 0.00 0.00 0.00 87 1011.3
20260502162503 13 82 8.0 16.1 0.00 0.00 0.00 86 1011.2
20260502162003 13 81 8.0 14.5 0.00 0.00 0.00 86 1011.3
20260502161503 13 81 9.7 14.5 0.00 0.00 0.00 85 1011.2
20260502161003 13 82 8.0 14.5 0.00 0.00 0.00 86 1011.4
20260502160503 13 82 8.0 14.5 0.00 0.00 0.00 86 1011.4
20260502152003 14 104 6.4 11.3 0.00 0.00 0.00 84 1011.6
20260502151503 13 101 8.0 12.9 0.00 0.00 0.00 85 1011.8
20260502151003 13 88 8.0 12.9 0.00 0.00 0.00 86 1011.8
20260502150503 13 86 8.0 14.5 0.00 0.00 0.00 86 1011.8
20260502130504 12 86 8.0 14.5 0.00 0.00 0.00 90 1013.0
20260502123504 12 82 9.7 16.1 0.00 0.00 0.00 89 1013.4
20260502123004 12 85 11.3 16.1 0.00 0.00 0.00 88 1013.5
20260502122503 12 85 11.3 17.7 0.00 0.00 0.00 87 1013.6
20260502122003 12 88 9.7 17.7 0.00 0.00 0.00 87 1013.6
20260502121503 12 90 8.0 16.1 0.00 0.00 0.00 86 1013.6
20260502121004 12 97 8.0 16.1 0.00 0.00 0.00 86 1013.5
20260502120503 13 98 9.7 14.5 0.00 0.00 0.00 87 1013.5
20260502115503 12 98 8.0 14.5 0.00 0.00 0.00 89 1013.5
20260502115024 12 101 8.0 14.5 0.00 0.00 0.00 88 1013.5
20260502114524 12 110 6.4 14.5 0.00 0.00 0.00 90 1013.5
20260502114003 12 105 6.4 11.3 0.00 0.00 0.00 92 1013.5
20260502113503 12 100 6.4 9.7 0.00 0.00 0.00 91 1013.5
20260502113004 12 95 4.8 8.0 0.00 0.00 0.00 92 1013.6
20260502112524 12 74 6.4 12.9 0.00 0.00 0.00 92 1013.7
20260502112004 12 78 6.4 12.9 0.00 0.00 0.00 92 1013.7
20260502111524 12 82 6.4 12.9 0.00 0.00 0.00 92 1013.7
20260502111003 11 82 8.0 11.3 0.00 0.00 0.00 92 1013.7
20260502110504 12 83 6.4 12.9 0.00 0.00 0.00 91 1013.8
20260502110024 12 82 6.4 12.9 0.00 0.00 0.00 91 1013.9
20260502105503 12 86 6.4 12.9 0.00 0.00 0.00 91 1013.9
20260502105024 12 89 4.8 12.9 0.00 0.00 0.00 91 1014.0
20260502104503 11 84 4.8 9.7 0.00 0.00 0.00 91 1014.0
20260502104003 11 89 4.8 11.3 0.00 0.00 0.00 91 1014.1
20260502103503 12 102 4.8 11.3 0.00 0.00 0.00 91 1014.2
20260502103003 12 92 4.8 11.3 0.00 0.00 0.00 91 1014.2
20260502102503 12 81 3.2 11.3 0.00 0.00 0.00 89 1014.2
20260502102003 12 75 1.6 9.7 0.00 0.00 0.00 89 1014.2
20260502101503 12 86 3.2 9.7 0.00 0.00 0.00 88 1014.2
20260502101003 12 90 3.2 9.7 0.00 0.00 0.00 87 1014.2
20260502100503 12 261 0.0 3.2 0.00 0.00 0.00 86 1014.2
20260502091503 12 257 1.6 6.4 0.00 0.00 0.00 84 1014.3
20260502091003 12 263 3.2 8.0 0.00 0.00 0.00 84 1014.3
20260502090503 12 263 4.8 8.0 0.00 0.00 0.00 84 1014.4
20260502071503 12 255 0.0 4.8 0.00 0.00 0.00 90 1014.4
20260502071003 11 279 0.0 1.6 0.00 0.00 0.00 91 1014.4
20260502070503 11 287 0.0 3.2 0.00 0.00 0.00 91 1014.4
20260502070003 11 276 1.6 3.2 0.00 0.00 0.00 91 1014.4
20260502065503 11 259 1.6 3.2 0.00 0.00 0.00 91 1014.4
20260502065024 11 254 1.6 3.2 0.00 0.00 0.00 90 1014.4
20260502064503 11 250 0.0 1.6 0.00 0.00 0.00 90 1014.4
20260502064003 11 241 1.6 4.8 0.00 0.00 0.00 90 1014.5
20260502063503 11 247 0.0 4.8 0.00 0.00 0.00 90 1014.5
20260502063003 11 273 0.0 3.2 0.00 0.00 0.00 90 1014.5
20260502062503 11 274 0.0 3.2 0.00 0.00 0.00 90 1014.4
20260502062003 11 275 0.0 1.6 0.00 0.00 0.00 90 1014.4
20260502061503 11 275 0.0 1.6 0.00 0.00 0.00 90 1014.4
20260502061003 11 0 0.0 0.0 0.00 0.00 0.00 90 1014.3
20260502060503 11 0 0.0 0.0 0.00 0.00 0.00 90 1014.4
20260502060003 11 0 0.0 0.0 0.00 0.00 0.00 91 1014.4
20260502055524 11 0 0.0 0.0 0.00 0.00 0.00 91 1014.4
20260502055024 11 0 0.0 0.0 0.00 0.00 0.00 91 1014.4
20260502054524 10 0 0.0 0.0 0.00 0.00 0.00 91 1014.4
20260502054003 10 0 0.0 0.0 0.00 0.00 0.00 91 1014.4
20260502053503 10 0 0.0 0.0 0.00 0.00 0.00 91 1014.3
20260502053003 10 0 0.0 0.0 0.00 0.00 0.00 91 1014.4
20260502052503 10 280 0.0 1.6 0.00 0.00 0.00 91 1014.4
20260502052003 10 280 0.0 1.6 0.00 0.00 0.00 91 1014.3
20260502051503 10 280 0.0 1.6 0.00 0.00 0.00 91 1014.4
20260502051003 10 280 0.0 3.2 0.00 0.00 0.00 91 1014.4
20260502050524 10 280 0.0 3.2 0.00 0.00 0.00 91 1014.5
20260502050003 10 280 0.0 3.2 0.00 0.00 0.00 91 1014.5
20260502045503 10 280 1.6 3.2 0.00 0.00 0.00 91 1014.5
20260502044504 10 280 0.0 1.6 0.00 0.00 0.00 91 1014.7
20260502044003 10 280 0.0 3.2 0.00 0.00 0.00 91 1014.7
20260502043503 10 280 0.0 3.2 0.00 0.00 0.00 91 1014.7
20260502043003 10 280 0.0 1.6 0.00 0.00 0.00 91 1014.7
20260502042503 10 280 0.0 1.6 0.00 0.00 0.00 91 1014.7
20260502042003 10 280 0.0 1.6 0.00 0.00 0.00 91 1014.7
20260502041503 10 280 0.0 1.6 0.00 0.00 0.00 91 1014.8
20260502041003 10 280 0.0 1.6 0.00 0.00 0.00 91 1014.8
20260502040503 10 0 0.0 0.0 0.00 0.00 0.00 91 1014.9
20260502040003 10 279 0.0 1.6 0.00 0.00 0.00 91 1014.9
20260502035503 10 279 0.0 1.6 0.00 0.00 0.00 91 1014.9
20260502035003 10 279 0.0 1.6 0.00 0.00 0.00 91 1015.0
20260502034503 10 279 0.0 1.6 0.00 0.00 0.00 91 1015.0
20260502034003 10 279 0.0 1.6 0.00 0.00 0.00 91 1014.9
20260502033503 10 279 0.0 1.6 0.00 0.00 0.00 91 1015.0
20260502033003 10 279 0.0 1.6 0.00 0.00 0.00 91 1015.0
20260502032503 10 0 0.0 0.0 0.00 0.00 0.00 91 1014.9
20260502032003 10 0 0.0 0.0 0.00 0.00 0.00 91 1015.0
20260502031503 10 0 0.0 0.0 0.00 0.00 0.00 91 1015.0
20260502031003 10 0 0.0 0.0 0.00 0.00 0.00 91 1015.1
20260502030503 10 0 0.0 0.0 0.00 0.00 0.00 91 1015.1
20260502030003 10 279 0.0 1.6 0.00 0.00 0.00 91 1015.1
20260502025503 10 279 0.0 1.6 0.00 0.00 0.00 91 1015.2
20260502025003 10 280 0.0 1.6 0.00 0.00 0.00 91 1015.2
20260502024503 10 280 0.0 1.6 0.00 0.00 0.00 91 1015.2
20260502024003 10 0 0.0 0.0 0.00 0.00 0.00 91 1015.2
20260502023503 10 0 0.0 0.0 0.00 0.00 0.00 91 1015.3
20260502023003 10 280 0.0 1.6 0.00 0.00 0.00 91 1015.3
20260502022503 10 280 0.0 1.6 0.00 0.00 0.00 91 1015.3